Geneva, Switzerland

1:51 PM CET on February 27, 2017 (GMT +0100)
Cointrin

Weather History for LSGG - March, 2013

Change the Weather History Date:

Thursday, March 7, 2013

  Actual Average Record
Temperature  
Mean Temperature 47 °F -  
Max Temperature 58 °F 51 °F 60 °F (1998)
Min Temperature 36 °F 34 °F 15 °F (2005)
Degree Days  
Heating Degree Days 18    
Moisture  
Dew Point 38 °F    
Average Humidity 75    
Maximum Humidity 93    
Minimum Humidity 44    
Precipitation  
Precipitation 0.00 in 0.09 in - ()
Sea Level Pressure  
Sea Level Pressure 29.58 in    
Wind  
Wind Speed 2 mph ()    
Max Wind Speed 6 mph    
Max Gust Speed -    
Visibility 6.1 miles    
Events Rain    
Averages and records for this station are not official NWS values.
T = Trace of Precipitation, MM = Missing Value Source: Averaged Metar Reports

Daily Weather History Graph

Daily Weather History Graph

Search for Another Location

Airport or City:

Trip Planner

Search our weather history database for the weather conditions in past years. The results will help you decide how hot, cold, wet, or windy it might be!

Date:

Astronomy

Mar. 07, 2013 Rise Set
Actual Time 7:03 AM CET 6:30 PM CET
Civil Twilight 6:33 AM CET 7:00 PM CET
Nautical Twilight 5:58 AM CET 7:34 PM CET
Astronomical Twilight 5:23 AM CET 8:10 PM CET
Moon 4:03 AM CET (3/7) 1:48 PM CET (3/7)
Length of Visible Light 12h 26m
Length of Day
11h 26m
Waning Crescent, 22% of the Moon is Illuminated
Mar 7
Waning Crescent
Mar 11
New
Mar 19
First Quarter
Mar 27
Full
Apr 3
Last Quarter

Hourly Weather History & Observations

Time (CET) Temp. Windchill Dew Point Humidity Pressure Visibility Wind Dir Wind Speed Gust Speed Precip Events Conditions
12:00 AM 39 °F - 36 °F 83% 29.58 in - NW 2.3 mph - -  
12:20 AM 39.2 °F 37.0 °F 35.6 °F 87% 29.53 in 6.2 mi WNW 3.5 mph - N/A   Mostly Cloudy
12:50 AM 39.2 °F - 37.4 °F 93% 29.53 in 6.2 mi Variable 2.3 mph - N/A   Mostly Cloudy
1:00 AM 38 °F - 35 °F 84% 29.59 in 6 mi WSW 2.3 mph - -   Mist
1:20 AM 39.2 °F - 35.6 °F 87% 29.53 in 6.2 mi Calm Calm - N/A   Mostly Cloudy
1:50 AM 37.4 °F - 35.6 °F 93% 29.53 in 6.2 mi Calm Calm - N/A   Mostly Cloudy
2:00 AM 38 °F - 35 °F 83% 29.59 in - West 2.3 mph - -  
2:50 AM 37.4 °F - 35.6 °F 93% 29.53 in 6.2 mi Calm Calm - N/A   Mostly Cloudy
3:00 AM 38 °F - 35 °F 85% 29.59 in - Calm Calm - -  
3:20 AM 37.4 °F - 35.6 °F 93% 29.53 in 6.2 mi Variable 1.2 mph - N/A   Mostly Cloudy
3:50 AM 37.4 °F - 35.6 °F 93% 29.53 in 6.2 mi SW 1.2 mph - N/A   Mostly Cloudy
4:20 AM 37.4 °F - 35.6 °F 93% 29.53 in 6.2 mi Calm Calm - N/A   Mostly Cloudy
4:50 AM 37.4 °F - 35.6 °F 93% 29.53 in 6.2 mi Calm Calm - N/A   Mostly Cloudy
5:00 AM 38 °F - 35 °F 85% 29.60 in - West 1.2 mph - -  
5:20 AM 37.4 °F - 35.6 °F 93% 29.56 in 5.6 mi SW 2.3 mph - N/A Rain Light Rain
5:50 AM 37.4 °F 34.9 °F 35.6 °F 93% 29.56 in 6.2 mi Variable 3.5 mph - N/A   Mostly Cloudy
6:00 AM 39 °F - 36 °F 85% 29.60 in - SSE 1.2 mph - -  
6:20 AM 39.2 °F - 37.4 °F 93% 29.56 in 5.6 mi Variable 1.2 mph - N/A   Overcast
6:50 AM 39.2 °F - 37.4 °F 93% 29.56 in 5.0 mi Variable 1.2 mph - N/A   Overcast
7:00 AM 40 °F - 36 °F 80% 29.61 in 5 mi NNE 2.3 mph - - Rain Light Rain
7:20 AM 39.2 °F - 37.4 °F 93% 29.56 in 5.0 mi Variable 1.2 mph - N/A Rain Light Rain
7:50 AM 41.0 °F - 37.4 °F 87% 29.56 in 5.0 mi Variable 1.2 mph - N/A   Overcast
8:00 AM 41 °F - 37 °F 80% 29.62 in - WNW 2.3 mph - -  
8:20 AM 41.0 °F - 37.4 °F 87% 29.59 in 5.6 mi Calm Calm - N/A   Overcast
8:50 AM 42.8 °F - 37.4 °F 81% 29.59 in 6.2 mi Variable 2.3 mph - N/A   Overcast
9:00 AM 42 °F - 37 °F 76% 29.63 in - West 2.3 mph - -  
9:20 AM 44.6 °F - 39.2 °F 81% 29.59 in 6.2 mi Calm Calm - N/A   Overcast
9:50 AM 44.6 °F - 39.2 °F 81% 29.62 in 6.2 mi Calm Calm - N/A   Overcast
10:20 AM 46.4 °F - 39.2 °F 76% 29.62 in 6.2 mi Calm Calm - N/A Rain Light Rain
10:50 AM 48.2 °F - 37.4 °F 66% 29.62 in 6.2 mi Variable 3.5 mph - N/A Rain Light Rain
11:00 AM 48 °F - 37 °F 55% 29.64 in - West 3.5 mph - -  
11:20 AM 50.0 °F - 37.4 °F 62% 29.62 in 6.2 mi Variable 2.3 mph - N/A Rain Light Rain
11:50 AM 50.0 °F - 39.2 °F 66% 29.62 in 6.2 mi SW 4.6 mph - N/A Rain Light Rain
12:00 PM 50 °F - 38 °F 52% 29.63 in - WSW 4.6 mph - -  
12:20 PM 50.0 °F - 39.2 °F 66% 29.62 in 6.2 mi Variable 2.3 mph - N/A   Overcast
12:50 PM 51.8 °F - 41.0 °F 67% 29.62 in 6.2 mi SSW 3.5 mph - N/A   Overcast
1:00 PM 51 °F - 39 °F 53% 29.62 in 7 mi SSW 3.5 mph - -   Haze
1:20 PM 51.8 °F - 41.0 °F 67% 29.59 in 6.2 mi SW 5.8 mph - N/A   Overcast
1:50 PM 53.6 °F - 41.0 °F 62% 29.59 in 6.2 mi SSW 4.6 mph - N/A   Mostly Cloudy
2:00 PM 54 °F - 39 °F 45% 29.59 in - South 5.8 mph - -  
2:20 PM 57.2 °F - 41.0 °F 55% 29.59 in 6.2 mi SW 5.8 mph - N/A   Mostly Cloudy
2:50 PM 53.6 °F - 41.0 °F 62% 29.56 in 6.2 mi Variable 3.5 mph - N/A   Mostly Cloudy
3:00 PM 54 °F - 40 °F 47% 29.58 in - East 4.6 mph - -  
3:20 PM 55.4 °F - 41.0 °F 58% 29.56 in 6.2 mi Variable 2.3 mph - N/A   Scattered Clouds
3:50 PM 57.2 °F - 41.0 °F 55% 29.56 in 6.2 mi East 3.5 mph - N/A   Scattered Clouds
4:20 PM 57.2 °F - 41.0 °F 55% 29.53 in 6.2 mi SW 4.6 mph - N/A   Partly Cloudy
4:50 PM 57.2 °F - 41.0 °F 55% 29.53 in 6.2 mi SW 3.5 mph - N/A   Partly Cloudy
5:00 PM 56 °F - 40 °F 44% 29.52 in - East 4.6 mph - -  
5:20 PM 53.6 °F - 41.0 °F 62% 29.53 in 6.2 mi Variable 2.3 mph - N/A   Partly Cloudy
5:50 PM 53.6 °F - 39.2 °F 58% 29.53 in 6.2 mi ESE 5.8 mph - N/A   Partly Cloudy
6:00 PM 50 °F - 38 °F 54% 29.57 in - East 3.5 mph - -  
6:20 PM 50.0 °F - 39.2 °F 66% 29.56 in 6.2 mi East 4.6 mph - N/A   Partly Cloudy
6:50 PM 46.4 °F - 37.4 °F 71% 29.56 in 6.2 mi Variable 1.2 mph - N/A   Partly Cloudy
7:00 PM 48 °F - 37 °F 57% 29.60 in 9 mi NE 2.3 mph - -   Scattered Clouds
7:20 PM 46.4 °F - 37.4 °F 71% 29.59 in 6.2 mi Variable 1.2 mph - N/A   Partly Cloudy
7:50 PM 44.6 °F - 37.4 °F 76% 29.59 in 5.6 mi Variable 1.2 mph - N/A   Partly Cloudy
8:00 PM 45 °F - 38 °F 67% 29.61 in - North 1.2 mph - -  
8:20 PM 44.6 °F - 37.4 °F 76% 29.59 in 6.2 mi Calm Calm - N/A   Partly Cloudy
8:50 PM 42.8 °F 40.1 °F 37.4 °F 81% 29.56 in 6.2 mi East 4.6 mph - N/A   Partly Cloudy
9:00 PM 42 °F - 37 °F 78% 29.61 in - ENE 4.6 mph - -  
9:20 PM 41.0 °F 39.0 °F 37.4 °F 87% 29.56 in 6.2 mi Variable 3.5 mph - N/A   Partly Cloudy
9:50 PM 41.0 °F 39.0 °F 37.4 °F 87% 29.56 in - Variable 3.5 mph - N/A   Clear
10:20 PM 41.0 °F 38.0 °F 37.4 °F 87% 29.56 in - NE 4.6 mph - N/A   Clear
10:50 PM 41.0 °F - 37.4 °F 87% 29.56 in - Variable 1.2 mph - N/A   Clear
11:00 PM 41 °F - 36 °F 76% 29.60 in - SSW 2.3 mph - -  
11:20 PM 41.0 °F - 35.6 °F 81% 29.56 in - Variable 2.3 mph - N/A   Clear
11:50 PM 39.2 °F - 35.6 °F 87% 29.56 in - Calm Calm - N/A   Clear